www.pogodaiklimat.ru

Погода и климат >> Архив погоды >> Молдова >> Кишинев


АРХИВ ПОГОДЫ в Кишиневе

Время (UTC), дата Ветер
(напр.,м/с)
 
Видим.   Явления Облачность Т
(С)
Тd
(С)
f
(%)
Тe
(С)
Тes
(С)
Комфортность P
(гПа)
Po
(гПа)
Тmin
(С)
Tmax
(С)
R
(мм)
R24
(мм)
S
(см)
00 16.04 ЮЗ 4 20 км 10/0
[Ac und]
+10.9 +3.2 59 +9 +9 тепло 1021.6 1001.0
03 16.04 Ю 3 20 км 10/8 600 м
[Sc Ac trans]
+9.6 +2.7 62 +8 +8 по сезону 1021.7 1001.0
06 16.04 Ю 3 20 км 10/6 600 м
[Sc Ac trans]
+10.2 +2.8 60 +8 +9 по сезону 1022.6 1002.0 +9.2
09 16.04 Ю 5 20 км 10/8 600 м
[Sc Ac trans]
+14.9 +0.7 38 +14 +14 тепло 1021.7 1001.4
12 16.04 ЮВ 5 20 км 10/5 600 м
[Sc Ac trans]
+16.7 +0.8 34 +16 +17 тепло 1020.3 1000.2
15 16.04 Ю 5 20 км 10/4 600 м
[Sc Ac trans]
+16.2 -1.8 29 +15 +16 тепло 1018.8 998.6
18 16.04 Ю 4 20 км 10/10 600 м
[Sc]
+12.3 +1.9 49 +11 +11 по сезону 1019.1 998.7 +17.3
21 16.04 Ю 3 20 км 10/5 600 м
[Sc Ac trans]
+9.5 +3.0 64 +7 +7 по сезону 1019.3 998.7
00 17.04 ЮВ 2 20 км 8/0
[Ac trans Ci fib]
+8.0 +3.7 74 +6 +6 по сезону 1019.3 998.6
03 17.04 Ю 3 20 км 10/4 600 м
[Sc Ac trans]
+7.0 +3.8 80 +4 +4 по сезону 1018.8 998.0
06 17.04 Ю 2 20 км 10/1 600 м
[Sc Ac trans]
+10.0 +4.4 68 +9 +11 по сезону 1019.8 999.2 +6.8
09 17.04 ЮЗ 5 20 км 9/1 600 м
[Sc Ac trans Ci sp]
+17.3 0.0 31 +17 +20 тепло 1019.8 999.7
12 17.04 Ю 5 20 км 10/0
[Ac cast Ci sp]
+20.6 +0.4 26 +21 +24 комфорт 1019.0 999.1
15 17.04 Ю 4 20 км 10/1 600 м
[Sc Ac trans]
+19.7 -3.2 21 +20 +20 тепло 1018.6 998.7
18 17.04 Ю 2 20 км 10/9 600 м
[Sc Ac trans]
+16.2 +1.5 37 +16 +16 тепло 1019.9 999.7 +22.0
21 17.04 ЮЗ 3 20 км 10/10 600 м
[Sc]
+14.1 +4.7 53 +13 +13 тепло 1021.2 1000.9
00 18.04 З 2 20 км 10/8 600 м
[Sc Ac trans]
+12.2 +5.1 62 +11 +11 тепло 1022.0 1001.5
03 18.04 З 2 20 км 6/1 600 м
[Sc Ac trans]
+9.4 +4.8 73 +8 +8 по сезону 1022.6 1001.9
06 18.04 СЗ 5 20 км 10/8 600 м
[Sc Ac trans]
+14.5 +8.2 66 +13 +13 тепло 1023.7 1003.4 +8.6
09 18.04 СЗ 5 20 км 9/8 600 м
[Sc Ac trans]
+16.4 +8.6 60 +16 +17 тепло 1024.4 1004.2
12 18.04 СЗ 4 20 км 9/6 600 м
[Cu Sc Ac trans]
+17.5 +7.3 51 +17 +19 тепло 1024.1 1004.0
15 18.04 З 4 20 км 6/3 600 м
[Cu hum Ac trans Ci fib]
+18.7 +8.4 51 +19 +20 тепло 1022.0 1002.0
18 18.04 СЗ 3 20 км 3/0
[Ac trans]
+16.6 +1.9 37 +16 +16 тепло 1023.1 1002.9 +20.0
21 18.04 СЗ 3 20 км ясно +14.6 +3.7 48 +14 +14 тепло 1023.3 1003.0
00 19.04 СЗ 5 20 км ясно +13.0 +3.1 51 +11 +11 тепло 1022.9 1002.5
03 19.04 СЗ 4 20 км ясно +10.8 +2.9 58 +9 +9 по сезону 1022.4 1001.8
06 19.04 СЗ 6
{13}
20 км 9/0
[Ac trans]
+13.2 +4.6 56 +11 +12 тепло 1021.3 1000.9 +10.5
09 19.04 СЗ 10
{16}
20 км 8/8 600 м
[Cu med, cong]
+18.4 +4.2 39 +17 +18 тепло 1018.5 998.5
12 19.04 СЗ 10
{17}
20 км пыльный позёмок {метель} 10/4 600 м
[Cu hum Ci fib]
+21.0 +1.8 28 +21 +21 комфорт 1015.9 996.1
15 19.04 СЗ 9
{16}
20 км 8/8 600 м
[Cu med, cong]
+21.4 +1.6 27 +21 +21 комфорт 1013.6 993.9
18 19.04 С 6
{14}
20 км {метель} 4/0
[Ac trans]
+17.8 +0.9 32 +17 +17 тепло 1014.4 994.4 +21.7
21 19.04 С 4 20 км 3/0
[Ac trans]
+14.0 +2.3 45 +13 +13 тепло 1015.8 995.6
00 20.04 С 6
{13}
20 км ясно +9.8 +5.8 76 +6 +6 по сезону 1016.0 995.5
03 20.04 СЗ 7 20 км 10/0
[Ac und]
+9.1 +4.7 74 +5 +5 по сезону 1017.2 996.6
06 20.04 С 8
{13}
20 км 6/4 600 м
[Cu med, cong Ac trans]
+10.5 +4.2 65 +7 +7 по сезону 1018.5 998.0 +8.9
09 20.04 СЗ 8
{12}
20 км 4/4 600 м
[Cu med, cong]
+14.2 +3.4 48 +12 +14 тепло 1019.0 998.7
12 20.04 С 4
{12}
20 км 8/8 600 м
[Cu med, cong]
+17.8 -0.9 28 +18 +19 тепло 1018.6 998.6
15 20.04 С 6
{12}
20 км 8/8 600 м
[Cu med, cong]
+17.3 -0.9 29 +17 +17 тепло 1018.8 998.7
18 20.04 С 3 20 км 4/4 600 м
[Sc]
+15.1 -0.6 34 +15 +15 тепло 1020.2 999.9 +19.0
21 20.04 СЗ 3 20 км 9/0
[Ac trans]
+13.3 0.0 40 +12 +12 тепло 1021.1 1000.7
00 21.04 С 4 20 км 8/0
[Ac trans]
+12.3 +0.4 44 +11 +11 тепло 1020.7 1000.2
03 21.04 С 3 20 км 3/0
[Ci fib]
+11.3 +1.5 51 +10 +10 тепло 1020.1 999.6
06 21.04 С 3 20 км ясно +15.0 +2.5 43 +14 +19 тепло 1019.6 999.4 +10.9
09 21.04 СЗ 3 20 км ясно +18.9 +1.0 30 +19 +31 опасность
простуды
1018.4 998.4
12 21.04 З 5 20 км 3/0
[Ci fib]
+21.6 +1.8 27 +21 +28 комфорт 1015.5 995.8
15 21.04 З 5 20 км 3/0
[Ci fib]
+22.8 0.0 22 +22 +23 комфорт 1012.6 993.0
18 21.04 З 3 20 км 6/0
[Ci fib]
+18.4 -0.4 28 +19 +19 тепло 1011.4 991.5 +23.3
21 21.04 З 4 20 км ясно +17.2 +4.2 42 +17 +17 тепло 1010.7 990.8
00 22.04 СЗ 5 20 км ясно +19.2 +0.7 29 +19 +19 тепло 1010.8 991.0
03 22.04 С 4 20 км 6/0
[Ci fib]
+16.7 +3.7 42 +16 +16 тепло 1011.5 991.5
06 22.04 СЗ 4 20 км 6/0
[Ac cast Ci fib]
+17.1 +3.8 41 +17 +19 тепло 1013.1 993.1 +15.9
09 22.04 С 7 20 км 8/0
[Ac trans Ci fib]
+20.2 -0.4 25 +20 +22 тепло 1013.3 993.5
12 22.04 СЗ 6 20 км 3/0
[Ac trans Ci fib]
+21.7 +0.8 25 +21 +26 комфорт 1011.9 992.3
15 22.04 СЗ 5 20 км 5/0
[Ac cast Ci fib]
+22.0 -3.4 18 +21 +22 комфорт 1011.0 991.4
18 22.04 С 2 20 км 6/0
[Ac cast Ci fib]
+18.6 -2.9 23 +19 +19 тепло 1012.4 992.5 +22.9
21 22.04 С 3 20 км 8/0
[Ac trans]
+16.7 -3.4 25 +17 +17 тепло 1013.0 993.0

 

Местоположение метеостанции Кишинев (Молдова): широта 47.02 долгота 28.98 высота над уровнем моря 173 м.

В архиве по умолчанию представлена погода в Кишиневе за последнюю неделю. Архивные данные за месяц целиком и за предыдущие месяцы, начиная с января 2011 года, Вы можете получить, выбрав интересующий диапазон дат из раскрывающегося списка и нажав кнопку "Ввод!".


*Определитесь, кто Вы:
робот инопланетянин человек

Внимание! Время в таблицах - всемирное. Для получения местного времени необходимо прибавить поправку, которая в Кишиневе равна 2 ч.

Смотрите также архив погоды в соседних городах и на ближайших метеорологических станциях:

Погода в Балцате (Молдова) (5 км)
Погода в Дубоссарах (Молдова) (29 км)
Погода в Кодрах (Молдова) (46 км)
Погода в Тирасполе (Молдова) (49 км)
Погода в Бравичах (Молдова) (57 км)
Погода в Штефан Водэ (Молдова) (67 км)
Погода в Корнестах (Молдова) (76 км)
Погода в Затишье (Одесская область, Украина) (76 км)
Погода в Леове (Молдова) (80 км)
Погода в Заставе (Одесская область, Украина) (81 км)

Пояснения к столбцам:

Ветер - указаны скорость ветра в м/с - средняя за 10 мин, порывы в срок и между сроками (в фигурных скобках) и направление, откуда дует ветер: С - северный, СВ - северо-восточный, В - восточный, ЮВ - юго-восточный, Ю - южный, ЮЗ - юго-западный, З - западный, СЗ - северо-западный.
Видимость - горизонтальная дальность видимости в метрах или километрах. При видимости от 1 до 10 км при отсутствии осадков обычно наблюдается дымка, при ухудшении видимости до 1 км и менее - туман. В сухую погоду видимость может ухудшаться дымом, пылью или мглою.
Явления - указаны атмосферные явления, наблюдавшиеся в срок или в последний час перед сроком; фигурными скобками обозначены явления, наблюдавшиеся между сроками (за 1-3 часа до срока); квадратными скобками обозначены град или гололедные отложения с указанием их диаметра в мм.
Облачность - указаны через наклонную черту общая и нижняя облачность в баллах и высота нижней границы облаков в метрах; квадратными скобками обозначены формы облаков: Ci - перистые, Cs - перисто-слоистые, Cc - перисто-кучевые, Ac - высококучевые, As - высокослоистые, Sc - слоисто-кучевые, Ns - слоисто-дождевые, Cu - кучевые, Cb - кучево-дождевые. Подробнее классификацию облаков см. в Атласе облаков (PDF).
T - Температура воздуха - температура, измеренная на высоте 2 м над землей.
Td - Температура точки росы - температура, при понижении до которой содержащийся в воздухе водяной пар достигнет насыщения.
f - Относительная влажность воздуха - влажноcть воздуха, измеренная на высоте 2 м над землей.
Te - Эффективная температура - температура, которую ощущает одетый по сезону человек в тени. Характеристика душности погоды. При расчете учитывается влияние влажности воздуха и скорости ветра на теплоощущения человека.
Tes - Эффективная температура на солнце - температура, которую ощущает человек, с поправкой на солнечный нагрев. Характеристика знойности погоды. Зависит от высоты солнца над горизонтом, облачности и скорости ветра. Ночью, в пасмурную погоду, а также при ветре 12 м/с и более поправка равна нулю.
P - Атмосферное давление - приведенное к уровню моря атмосферное давление.
Po - Атмосферное давление - измеренное на уровне метеостанции атмосферное давление.
Tmin - Минимальная температура - минимум температуры воздуха на высоте 2 м над землей.
Tmax - Максимальная температура - максимум температуры воздуха на высоте 2 м над землей.
R - Количество осадков - Количество выпавших осадков за период времени, мм. При наведении курсора мыши на число - период времени, за который выпало указанное количество осадков.
R24 - Количество осадков - Количество выпавших осадков за 24 часа, мм.
S - Снежный покров - Высота снежного покрова, см. При наведении курсора мыши на число - состояние снежного покрова и степень покрытия местности в баллах.